Volver al catálogo

STARLINK-35181

ActivoComunicacionesSSO
NORAD 65666·PAYLOAD·🇺🇸 United States

Lanzado Sep 19, 2025 desde Vandenberg Space Force Base

Loading…

Próximos Pases (próximas 24 horas)

TLE

ActualizadoSource: CelesTrak SupGP

Época: Sep 15, 2026, 02:50 UTC

1 65666C 25211Q   26258.11854167  .00014889  00000+0  46217-3 0  2586
2 65666  97.2829 298.4919 0001195  87.7692 242.2347 15.33432863    18

Sigue STARLINK-35181 en tiempo real con AllMySat

Download on the App Store